Location: Frizzleburg
(41.0764°N, 80.4548°W)
Time: 21:09:55
(UTC+00:00)

NOSS 3-3 (C) - Pass Details

Date: 17 November 2019
Orbit: 844 x 1368 km, 63.4° (Epoch: 05 December)

Event Time Altitude Azimuth Distance (km) Brightness Sun altitude
Exits shadow 10:14:24 43° 259° (WSW) 1,279 4.1 -22.0°
Maximum altitude 10:16:07 57° 310° (NW) 1,102 4.0 -21.7°
Drops below altitude 10° 10:22:34 10° 29° (NNE) 2,831 6.7 -20.5°
Sets 10:25:25 0° 33° (NNE) 3,870 7.5 -20.0°
